Location: La Tine
(46.4708°N, 7.0525°E)
Time: 11:06:40
(UTC+00:00)

MOS 1 - Pass Details

Date: 18 September 2020
Orbit: 878 x 891 km, 99.1° (Epoch: 24 October)

Event Time Altitude Azimuth Distance (km) Brightness Sun altitude
Exits shadow 19:23:13 14° 166° (SSE) 2,293 6.1 -18.6°
Maximum altitude 19:28:15 84° 255° (WSW) 903 4.3 -19.4°
Drops below altitude 10° 19:34:00 10° 344° (NNW) 2,571 7.3 -20.3°
Sets 19:36:25 0° 345° (NNW) 3,515 8.0 -20.7°
